• In Hungary
  • List of Countries
  • For 7 days
  • Water Temperature
  • Satellite Maps
  • Weather Map
  • News
  • Weather Widgets
  • user-avatar
    Login

    Hourly Weather Budapest

    Today, 29 June, Thursday

    Time Temperature Precipitation Wind Pressure Humidity
    00:00 +24°C° 0 mm 3 mps 743 mmHg 68%
    01:00 +22°C° 0 mm 3 mps 743 mmHg 72%
    02:00 +22°C° 0 mm 3 mps 742 mmHg 71%
    03:00 +22°C° 0 mm 3 mps 742 mmHg 71%
    04:00 +22°C° 0 mm 4 mps 742 mmHg 71%
    05:00 +23°C° 0.2 mm 5 mps 742 mmHg 68%
    06:00 +24°C° 0.2 mm 6 mps 742 mmHg 65%
    07:00 +26°C° 0.2 mm 7 mps 742 mmHg 63%
    08:00 +27°C° 0 mm 7 mps 742 mmHg 56%
    09:00 +29°C° 0 mm 8 mps 742 mmHg 49%
    10:00 +31°C° 0 mm 9 mps 742 mmHg 42%
    11:00 +32°C° 0.1 mm 9 mps 742 mmHg 40%
    12:00 +32°C° 0.1 mm 9 mps 742 mmHg 39%
    13:00 +33°C° 0.1 mm 10 mps 742 mmHg 37%
    14:00 +32°C° 0.2 mm 9 mps 742 mmHg 39%
    15:00 +32°C° 0.2 mm 9 mps 743 mmHg 40%
    16:00 +31°C° 0.2 mm 9 mps 743 mmHg 42%
    17:00 +29°C° 0.1 mm 7 mps 743 mmHg 46%
    18:00 +27°C° 0.1 mm 6 mps 743 mmHg 50%
    19:00 +26°C° 0.1 mm 5 mps 743 mmHg 55%
    20:00 +25°C° 0 mm 5 mps 744 mmHg 54%
    21:00 +23°C° 0 mm 5 mps 744 mmHg 53%
    22:00 +22°C° 0 mm 5 mps 745 mmHg 52%
    23:00 +22°C° 0 mm 5 mps 745 mmHg 52%

    Tomorrow, 30 June, Friday

    Time Temperature Precipitation Wind Pressure Humidity
    00:00 +22°C° 0 mm 5 mps 745 mmHg 52%
    01:00 +22°C° 0 mm 5 mps 745 mmHg 51%
    02:00 +21°C° 0 mm 5 mps 746 mmHg 54%
    03:00 +21°C° 0 mm 5 mps 746 mmHg 58%
    04:00 +20°C° 0 mm 4 mps 746 mmHg 61%
    05:00 +21°C° 0 mm 5 mps 747 mmHg 60%
    06:00 +23°C° 0 mm 6 mps 747 mmHg 58%
    07:00 +24°C° 0 mm 6 mps 747 mmHg 57%
    08:00 +27°C° 0 mm 7 mps 748 mmHg 51%
    09:00 +28°C° 0 mm 7 mps 748 mmHg 46%
    10:00 +29°C° 0 mm 7 mps 748 mmHg 41%
    11:00 +31°C° 0 mm 8 mps 748 mmHg 38%
    12:00 +32°C° 0 mm 8 mps 748 mmHg 35%
    13:00 +32°C° 0 mm 9 mps 748 mmHg 32%
    14:00 +32°C° 0 mm 8 mps 748 mmHg 33%
    15:00 +32°C° 0 mm 8 mps 748 mmHg 33%
    16:00 +32°C° 0 mm 8 mps 748 mmHg 33%
    17:00 +29°C° 0 mm 7 mps 748 mmHg 37%
    18:00 +28°C° 0 mm 5 mps 748 mmHg 40%
    19:00 +26°C° 0 mm 4 mps 748 mmHg 44%
    20:00 +25°C° 0 mm 4 mps 748 mmHg 46%
    21:00 +25°C° 0 mm 3 mps 748 mmHg 47%
    22:00 +24°C° 0 mm 3 mps 748 mmHg 49%
    23:00 +22°C° 0.3 mm 3 mps 748 mmHg 57%

    Day after tomorrow, 1 July, Saturday

    Time Temperature Precipitation Wind Pressure Humidity
    00:00 +21°C° 0.3 mm 3 mps 748 mmHg 65%
    01:00 +19°C° 0.3 mm 2 mps 748 mmHg 73%
    02:00 +19°C° 3.7 mm 2 mps 748 mmHg 80%
    03:00 +18°C° 3.7 mm 2 mps 748 mmHg 86%
    04:00 +17°C° 3.7 mm 2 mps 748 mmHg 93%
    05:00 +17°C° 1.1 mm 2 mps 748 mmHg 93%
    06:00 +17°C° 1.1 mm 2 mps 748 mmHg 93%
    07:00 +17°C° 1.1 mm 2 mps 748 mmHg 93%
    08:00 +18°C° 0.3 mm 3 mps 749 mmHg 88%
    09:00 +20°C° 0.3 mm 4 mps 749 mmHg 82%
    10:00 +21°C° 0.3 mm 4 mps 749 mmHg 76%
    11:00 +22°C° 0.3 mm 5 mps 749 mmHg 71%
    12:00 +23°C° 0.3 mm 5 mps 749 mmHg 67%
    13:00 +25°C° 0.3 mm 5 mps 749 mmHg 62%
    14:00 +25°C° 0 mm 4 mps 749 mmHg 58%
    15:00 +25°C° 0 mm 4 mps 749 mmHg 55%
    16:00 +26°C° 0 mm 4 mps 749 mmHg 51%
    17:00 +25°C° 0 mm 3 mps 749 mmHg 56%
    18:00 +23°C° 0 mm 2 mps 749 mmHg 62%
    19:00 +22°C° 0 mm 1 mps 749 mmHg 67%
    20:00 +21°C° 0 mm 1 mps 749 mmHg 69%
    21:00 +19°C° 0 mm 1 mps 749 mmHg 70%
    22:00 +18°C° 0 mm 1 mps 749 mmHg 72%
    23:00 +17°C° 0 mm 2 mps 749 mmHg 70%

    2 July, Sunday

    Time Temperature Precipitation Wind Pressure Humidity
    00:00 +17°C° 0 mm 2 mps 749 mmHg 68%
    01:00 +17°C° 0 mm 2 mps 749 mmHg 66%
    02:00 +16°C° 0 mm 2 mps 750 mmHg 69%
    03:00 +16°C° 0 mm 3 mps 750 mmHg 71%
    04:00 +16°C° 0 mm 3 mps 750 mmHg 74%
    05:00 +17°C° 0 mm 4 mps 750 mmHg 70%
    06:00 +19°C° 0 mm 6 mps 750 mmHg 66%
    07:00 +20°C° 0 mm 7 mps 751 mmHg 62%
    08:00 +21°C° 0 mm 7 mps 751 mmHg 58%
    09:00 +23°C° 0 mm 7 mps 751 mmHg 53%
    10:00 +24°C° 0 mm 7 mps 751 mmHg 49%
    11:00 +24°C° 0.1 mm 8 mps 751 mmHg 50%
    12:00 +23°C° 0.1 mm 9 mps 751 mmHg 52%
    13:00 +23°C° 0.1 mm 9 mps 750 mmHg 53%
    14:00 +22°C° 0 mm 9 mps 751 mmHg 57%
    15:00 +22°C° 0 mm 9 mps 751 mmHg 60%
    16:00 +21°C° 0 mm 9 mps 751 mmHg 63%
    17:00 +20°C° 0.1 mm 8 mps 751 mmHg 66%
    18:00 +18°C° 0.1 mm 7 mps 752 mmHg 70%
    19:00 +17°C° 0.1 mm 6 mps 752 mmHg 74%
    20:00 +16°C° 0 mm 5 mps 752 mmHg 74%
    21:00 +16°C° 0 mm 5 mps 753 mmHg 74%
    22:00 +15°C° 0 mm 5 mps 753 mmHg 74%
    23:00 +15°C° 0 mm 5 mps 753 mmHg 75%

    3 July, Monday

    Time Temperature Precipitation Wind Pressure Humidity
    00:00 +15°C° 0 mm 6 mps 753 mmHg 75%
    01:00 +15°C° 0 mm 6 mps 753 mmHg 76%
    02:00 +15°C° 0 mm 5 mps 753 mmHg 78%
    03:00 +15°C° 0 mm 5 mps 753 mmHg 79%
    04:00 +15°C° 0 mm 5 mps 753 mmHg 80%
    05:00 +15°C° 0.1 mm 5 mps 754 mmHg 78%
    06:00 +16°C° 0.1 mm 6 mps 754 mmHg 76%
    07:00 +17°C° 0.1 mm 6 mps 754 mmHg 73%
    08:00 +20°C° 0 mm 7 mps 754 mmHg 65%
    09:00 +21°C° 0 mm 7 mps 755 mmHg 57%
    10:00 +23°C° 0 mm 8 mps 755 mmHg 48%
    11:00 +23°C° 0 mm 8 mps 754 mmHg 46%
    12:00 +24°C° 0 mm 8 mps 754 mmHg 44%
    13:00 +24°C° 0 mm 8 mps 754 mmHg 42%
    14:00 +24°C° 0 mm 8 mps 754 mmHg 42%
    15:00 +24°C° 0 mm 8 mps 754 mmHg 42%
    16:00 +24°C° 0 mm 7 mps 753 mmHg 42%
    17:00 +23°C° 0 mm 6 mps 754 mmHg 47%
    18:00 +21°C° 0 mm 5 mps 754 mmHg 53%
    19:00 +20°C° 0 mm 3 mps 754 mmHg 58%
    20:00 +18°C° 0 mm 3 mps 754 mmHg 62%
    21:00 +17°C° 0 mm 3 mps 755 mmHg 66%
    22:00 +15°C° 0 mm 2 mps 755 mmHg 70%
    23:00 +14°C° 0 mm 2 mps 755 mmHg 74%

    4 July, Tuesday

    Time Temperature Precipitation Wind Pressure Humidity
    00:00 +13°C° 0 mm 2 mps 755 mmHg 77%
    01:00 +13°C° 0 mm 1 mps 755 mmHg 80%
    02:00 +12°C° 0 mm 1 mps 755 mmHg 81%
    03:00 +12°C° 0 mm 1 mps 755 mmHg 82%
    04:00 +12°C° 0 mm 1 mps 755 mmHg 83%
    05:00 +14°C° 0 mm 1 mps 755 mmHg 74%
    06:00 +17°C° 0 mm 2 mps 755 mmHg 65%
    07:00 +20°C° 0 mm 2 mps 755 mmHg 57%
    08:00 +21°C° 0 mm 3 mps 755 mmHg 54%
    09:00 +23°C° 0 mm 4 mps 754 mmHg 50%
    10:00 +26°C° 0 mm 5 mps 754 mmHg 47%
    11:00 +26°C° 0.1 mm 5 mps 754 mmHg 47%
    12:00 +26°C° 0.1 mm 6 mps 753 mmHg 46%
    13:00 +27°C° 0.1 mm 6 mps 753 mmHg 45%
    14:00 +27°C° 0 mm 6 mps 753 mmHg 46%
    15:00 +26°C° 0 mm 5 mps 753 mmHg 47%
    16:00 +26°C° 0 mm 5 mps 752 mmHg 49%
    17:00 +25°C° 0 mm 4 mps 752 mmHg 53%
    18:00 +24°C° 0 mm 3 mps 752 mmHg 58%
    19:00 +21°C° 0 mm 2 mps 752 mmHg 63%
    20:00 +20°C° 0 mm 2 mps 753 mmHg 67%
    21:00 +18°C° 0 mm 2 mps 753 mmHg 70%
    22:00 +17°C° 0 mm 2 mps 753 mmHg 74%
    23:00 +16°C° 0 mm 2 mps 753 mmHg 75%
    Show more